Location: Famechon
(49.7599°N, 2.0615°E)
Time: 23:42:44
(UTC+00:00)

Cosmos 1869 - Pass Details

Date: 03 February 2023
Orbit: 510 x 550 km, 82.5° (Epoch: 21 March)

Event Time Altitude Azimuth Distance (km) Brightness Sun altitude
Rises 19:01:10 0° 345° (NNW) 2,661 7.0 -21.4°
Reaches altitude 10° 19:03:21 10° 340° (NNW) 1,774 6.1 -21.7°
Maximum altitude 19:07:06 48° 266° (W) 699 4.2 -22.3°
Drops below altitude 10° 19:10:52 10° 191° (S) 1,784 6.0 -23.0°
Sets 19:13:04 0° 186° (S) 2,678 6.9 -23.3°
